Погода в Ярком Поле

Россия / Республика Крым     45°12′22″N   35°12′03″E
темп.,
°C
ветер,
м/с
пор.,
м/с
влажн.,
%
обл.,
%
осадки,
мм/ч
давл.,
гПа
погр.,
м
26 февраля, пт
пт2600:00+4юз1284100 0.0 103180
03:00+4зюз3688100 0.1 1030186
06:00+5зюз3791100 0.6 1029191
09:00+6зюз3790100 1.0 1029243
12:00+10з367698 0.0 1028434
15:00+12з587088 0.0 1026705
18:00+10з487637 0.0 1025172
21:00+8ю338718 0.0 102436
27 февраля, сб
сб2700:00+7ююз34890 0.0 102352
03:00+6юз22880 0.0 102126
06:00+6ююз33890 0.0 102046
09:00+8ююз22820 0.0 101975
12:00+13з57600 0.0 1018705
15:00+13зсз79634 0.0 1017714
18:00+10ссз477956 0.0 1016361
21:00+7ссз469078 0.8 1017379
28 февраля, вс
вс2800:00+6с3490100 0.5 1018345
03:00+5ссз5785100 1.8 1018530
06:00+5ссз5877100 0.1 1018621
09:00+5ссз568394 0.3 1019628
12:00+5ссз6880100 0.5 1020775
15:00+6ссз677596 0.8 1020790
18:00+4ссз678693 0.2 1021673
21:00+4ссз578896 0.4 1023630
1 марта, пн
пн100:00+3сз467891 0.2 1023532
03:00+3зсз477788 0.3 1024437
06:00+2сз468392 0.1 1025374
09:00+3сз467686 0.1 1026661
12:00+4с457097 0.2 1027793
15:00+4с456698 0.3 1027842
18:00+3ссв457225 0.0 1028522
21:00+2ссв347218 0.0 1029213
2 марта, вт
вт200:00+2св237614 0.0 1030225
03:00+1ссв127912 0.0 1031247
06:00+1зсз128181 0.1 1031253
09:00+2зсз237679 0.1 1032178
12:00+4с336311 0.0 1032768
15:00+5с446718 0.1 1031716
18:00+3ссв227061 0.0 1030267
21:00+3зюз347172 0.0 1030250